Flag for India Weather past 2 weeks in Chandauli, Uttar Pradesh, India

Now
90 °F

Passing clouds.


Feels Like: 90 °F
Forecast: 83 / 105 °F
Wind: No wind

Location: Varanasi / Babatpur


UV Index: 7 (High)

Visibility: 4 mi


Pressure: 29.86 "Hg

Humidity: 38%

Dew point: 61 °F

Location of ChandauliLocation

Historic Weather in Chandauli

°F

Chandauli temperature yesterday

Maximum temperature yesterday: 104 °F (at 1:00 PM)
Minimum temperature yesterday: 77 °F (at 4:00 AM)
Average temperature yesterday: 88 °F

Past Weeks' High & Low Weather Summary

 TemperatureHumidityPressure
High104 °F (Apr 7, 1:00 PM)78% (Apr 7, 5:00 AM)29.95 "Hg (Apr 7, 5:00 AM)
Low66 °F (Apr 10, 6:00 AM)10% (Apr 10, 12:00 PM)29.65 "Hg (Apr 7, 4:00 PM)
Average87 °F34%29.78 "Hg
* Reported Apr 4 11:00 AM — Apr 19 10:00 AM, Chandauli, Weather by CustomWeather, © 2014

Note: Actual official high and low records may vary slightly from our data, if they occured in-between our weather recording intervals... More about our weather records

Advertising

Historic Weather Conditions — Data for Previous 24 hours

 ConditionsComfort  
Time TempWeatherWind HumidityBarometerVisibility
10:00 AM
Apr 19
86 °FHaze.2 mph46%29.89 "Hg3 mi
9:00 AM81 °FHaze.6 mph54%29.89 "Hg2 mi
8:00 AM77 °FHaze.6 mph65%29.89 "Hg2 mi
7:00 AM75 °FHaze.5 mph61%29.86 "Hg2 mi
6:00 AM72 °FPassing clouds.5 mph65%29.83 "Hg2 mi
5:00 AM73 °FPassing clouds.No wind61%29.80 "Hg2 mi
4:00 AM75 °FHaze.No wind57%29.80 "Hg2 mi
12:00 AM77 °FPassing clouds.7 mph51%29.86 "Hg2 mi
11:00 PM
Apr 18
81 °FPassing clouds.2 mph45%29.86 "Hg2 mi
10:00 PM81 °FPartly cloudy.16 mph45%29.92 "Hg2 mi
9:00 PM82 °FPartly cloudy.16 mph37%29.95 "Hg2 mi
8:00 PM84 °FPartly cloudy.14 mph40%29.83 "Hg2 mi
6:00 PM90 °FScattered clouds.15 mph31%29.77 "Hg2 mi
5:00 PM91 °FScattered clouds.15 mph32%29.74 "Hg2 mi
4:00 PM97 °FScattered clouds.16 mph27%29.77 "Hg2 mi
2:00 PM104 °FHaze.2 mph19%29.77 "Hg3 mi
1:00 PM104 °FScattered clouds.3 mph20%29.80 "Hg3 mi
Weather by CustomWeather, © 2014

See weather overview